Regional Weather Roundup
Issued by NWS

Home | Current Version | Previous Version | Graphics & Text | Print | Product List | Glossary On
Versions: 1 2 3 4 5 6 7 8 9 10 11 12 13 14 15 16 17 18 19 20 21 22 23 24 25 26 27 28 29 30 31 32 33 34 35 36 37 38 39 40 41 42 43 44 45 46 47 48 49 50
000
ASUS45 KABQ 171301
RWRNM
WEATHER ROUNDUP FOR NEW MEXICO
NATIONAL WEATHER SERVICE ALBUQUERQUE NM
700 AM MDT THU APR 17 2014

NOTE: "FAIR" MEANS FEW OR NO CLOUDS BELOW 12,000 FEET AGL WITH NO
       SIGNIFICANT WEATHER OR OBSTRUCTIONS TO VISION.

      THIS PRODUCT IS RELEASED AS TWO VERSIONS.  ONE VERSION NEAR
      THE TOP OF THE HOUR CONTAINING PRELIMINARY DATA FROM ALBUQUERQUE
      AND OTHER STATIONS.  A FINAL VERSION WITH ADDITIONAL DATA IS
      ISSUED ABOUT 10 MINUTES AFTER THE HOUR.

NMZ501-503-504-510>518-171400-
NORTHWEST PLATEAU/NORTHCENTRAL MOUNTAINS

CITY           SKY/WX    TMP DP  RH WIND       PRES   REMARKS
FARMINGTON     CLEAR     30  18  60 E6        30.09R WCI  24
LOS ALAMOS     CLEAR     37  31  78 S6        30.14R WCI  33
SANTA FE       CLEAR     34  28  79 CALM      30.12R
TAOS           PTCLDY    28  27  93 NW7       30.16R WCI  21
ANGEL FIRE     CLOUDY    29  28  94 CALM      30.17R

$$
NMZ402-403-502-505>509-171400-
WESTCENTRAL MOUNTAINS/SOUTHWEST MOUNTAINS

CITY           SKY/WX    TMP DP  RH WIND       PRES   REMARKS
GALLUP         PTCLDY    26  14  60 CALM      30.13R
SILVER CITY    CLEAR     48   5  17 NW9       30.06R

$$
NMZ407-409-411-412-171400-
SOUTHERN DESERTS

CITY           SKY/WX    TMP DP  RH WIND       PRES   REMARKS
LORDSBURG      FAIR      45   7  21 NW3       30.01R
DEMING         CLEAR     43   4  19 CALM      30.01R
HOLLOMAN AFB   PTCLDY    49  23  36 N8        29.98R
T OR C         CLEAR     50  18  28 NW7       30.02R

$$
NMZ519>523-171400-
CENTRAL VALLEYS/CENTRAL HIGHLANDS

CITY           SKY/WX    TMP DP  RH WIND       PRES   REMARKS
ALBUQUERQUE    CLEAR     47  30  51 E18       30.09R
DOUBLE EAGLE   CLEAR     37  28  70 N6        30.10R WCI  33
CLINES CORNERS CLEAR     32  28  85 E8        30.13R WCI  25
BELEN          FAIR      42  23  46 S5        30.09R
SOCORRO        NOT AVBL

$$
NMZ524>526-539-540-171400-
SOUTHCENTRAL MOUNTAINS

CITY           SKY/WX    TMP DP  RH WIND       PRES   REMARKS
RUIDOSO        NOT AVBL

$$
NMZ527>531-171400-
NORTHEAST HIGHLANDS/NORTHEAST PLAINS

CITY           SKY/WX    TMP DP  RH WIND       PRES   REMARKS
LAS VEGAS      CLOUDY    33  30  88 N9        30.16R WCI  25
RATON          CLOUDY    36  33  89 E6        30.16R WCI  31
CLAYTON        CLOUDY    39  33  79 N17       30.18R WCI  30

$$
NMZ532>537-171400-
EASTCENTRAL PLAINS

CITY           SKY/WX    TMP DP  RH WIND       PRES   REMARKS
TUCUMCARI      PTCLDY    44  31  60 N20G28    30.12R
CANNON AFB     CLEAR     41  29  64 N22       30.08R
CLOVIS AIRPORT CLEAR     41  28  60 N24       30.10R

$$
NMZ028-029-538-171400-
SOUTHEAST PLAINS

CITY           SKY/WX    TMP DP  RH WIND       PRES   REMARKS
ROSWELL        CLEAR     48  30  49 N23G30    30.05R
CARLSBAD       CLEAR     53  28  38 N18G28    30.02R
HOBBS          CLEAR     45  27  49 NW9       29.99R


$$



USA.gov is the U.S. government's official web portal to all federal, state and local government web resources and services.